Flag Weather past 2 weeks in Port Coquitlam, British Columbia, Canada

Now
41 °F

Quite cool.


Feels Like: 41 °F
Forecast: 17 / 27 °F
Wind: 1 mph from South

Location: P. Meadows Coastal Station

Current Time: Nov 28, 2014 at 6:47:21 PM

Latest Report: Nov 28, 2014 at 6:00 PM


Visibility: N/A

Pressure: 29.45 "Hg

Humidity: 68%

Dew point: 31 °F

Location of Port CoquitlamLocation

Historic Weather in Port Coquitlam — Graph

°F

Port Coquitlam temperature yesterday

Maximum temperature yesterday: 56 °F (at 1:00 PM)
Minimum temperature yesterday: 52 °F (at 7:00 AM)
Average temperature yesterday: 54 °F

Past Weeks' High & Low Weather Summary

 TemperatureHumidityPressure
High56 °F (Nov 27, 1:00 PM)100% (Nov 14, 1:00 AM)30.57 "Hg (Nov 14, 1:00 AM)
Low21 °F (Nov 14, 4:00 AM)29% (Nov 14, 2:00 PM)29.27 "Hg (Nov 21, 7:00 PM)
Average40 °F88%30.04 "Hg
* Reported Nov 13 5:00 PM — Nov 28 5:00 PM, Port Coquitlam, Weather by CustomWeather, © 2014

Note: Actual official high and low records may vary slightly from our data, if they occured in-between our weather recording intervals... More about our weather records

Advertising

Port Coquitlam weather history for previous 24 hours

 ConditionsComfort  
Time TempWeatherWind HumidityBarometerVisibility
5:00 PM
Nov 28
42 °FQuite cool.3 mph69%29.44 "HgN/A
4:00 PM42 °FQuite cool.2 mph63%29.44 "HgN/A
3:00 PM44 °FQuite cool.2 mph61%29.45 "HgN/A
2:00 PM44 °FQuite cool.5 mph63%29.47 "HgN/A
12:00 PM44 °FQuite cool.12 mph53%29.49 "HgN/A
11:00 AM44 °FQuite cool.2 mph67%29.51 "HgN/A
10:00 AM43 °FQuite cool.1 mph73%29.51 "HgN/A
9:00 AM43 °FQuite cool.6 mph75%29.52 "HgN/A
8:00 AM42 °FQuite cool.6 mph84%29.51 "HgN/A
7:00 AM44 °FQuite cool.3 mph87%29.50 "HgN/A
6:00 AM44 °FQuite cool.2 mph90%29.49 "HgN/A
5:00 AM45 °FCool.3 mph93%29.50 "HgN/A
4:00 AM46 °FCool.5 mph96%29.50 "HgN/A
3:00 AM51 °FCool.9 mph88%29.49 "HgN/A
2:00 AM53 °FCool.9 mph86%29.49 "HgN/A
1:00 AM54 °FCool.10 mph89%29.50 "HgN/A
12:00 AM54 °FCool.7 mph91%29.52 "HgN/A
11:00 PM
Nov 27
53 °FCool.6 mph88%29.55 "HgN/A
10:00 PM53 °FCool.6 mph93%29.57 "HgN/A
9:00 PM53 °FCool.7 mph93%29.58 "HgN/A
8:00 PM54 °FCool.7 mph92%29.59 "HgN/A
7:00 PM54 °FCool.7 mph91%29.61 "HgN/A
6:00 PM55 °FCool.6 mph87%29.62 "HgN/A
Weather by CustomWeather, © 2014

See weather overviewHow to use our weather pages